Weather History for Nagpur Sonegaon, India

Change the Weather History Date:

Wednesday, March 27, 2013

  Actual Average Record
Temperature  
Mean Temperature 89 °F -  
Max Temperature 105 °F 104 °F - ()
Min Temperature 73 °F 75 °F - ()
Cooling Degree Days 24    
Growing Degree Days 39 (Base 50)    
Moisture  
Dew Point 57 °F    
Average Humidity 30    
Maximum Humidity 42    
Minimum Humidity 18    
Precipitation  
Precipitation 0.00 in 0.01 in - ()
Sea Level Pressure  
Sea Level Pressure 29.75 in    
Wind  
Wind Speed 3 mph ()    
Max Wind Speed 8 mph    
Max Gust Speed -    
Visibility 2.4 miles    
Events      
T = Trace of Precipitation, MM = Missing Value Source: Averaged Metar Reports

Daily Weather History Graph

Daily Weather History Graph

Search for Another Location

Airport:

Trip Planner

Search our weather history database for the weather conditions in past years. The results will help you decide how hot, cold, wet, or windy it might be!

Date:

Astronomy

Mar. 27, 2013 Rise Set
Actual Time 6:11 AM IST 6:26 PM IST
Civil Twilight 5:49 AM IST 6:49 PM IST
Nautical Twilight 5:23 AM IST 7:15 PM IST
Astronomical Twilight 4:57 AM IST 7:41 PM IST
Moon 6:32 PM IST (3/27) 5:48 AM IST (3/27)
Length of Visible Light 12h 59m
Length of Day
12h 15m
Full, 100% of the Moon is Illuminated
Mar 27
Full
Mar 27
Full
Apr 3
Last Quarter
Apr 10
New
Apr 18
First Quarter

Hourly Weather History & Observations

Time (IST) Temp. Heat Index Dew Point Humidity Pressure Visibility Wind Dir Wind Speed Gust Speed Precip Events Conditions
12:10 AM 87.8 °F 86.5 °F 57.2 °F 35% 29.80 in 1.9 mi NE 2.3 mph - N/A   Haze
1:10 AM 87.8 °F 85.7 °F 53.6 °F 31% 29.77 in 1.9 mi NE 2.3 mph - N/A   Haze
2:10 AM 87.8 °F - 51.8 °F 29% 29.77 in 2.5 mi NNE 3.5 mph - N/A   Haze
2:30 AM 81 °F - 58 °F 35% 29.71 in 1 mi NE 3.5 mph - -   Haze
3:10 AM 86.0 °F - 51.8 °F 31% 29.74 in 2.5 mi Calm Calm - N/A   Haze
5:10 AM 84.2 °F 82.8 °F 53.6 °F 35% 29.77 in 2.5 mi North 3.5 mph - N/A   Haze
5:30 AM 77 °F - 58 °F 42% 29.73 in 2 mi NW 3.5 mph - -   Haze
6:10 AM 82.4 °F 81.7 °F 55.4 °F 39% 29.77 in 2.5 mi Calm Calm - N/A   Haze
7:40 AM 84.2 °F 83.0 °F 55.4 °F 37% - 2.5 mi Calm Calm - N/A   Haze
8:10 AM 86.0 °F 84.5 °F 55.4 °F 35% 29.83 in 2.5 mi NE 2.3 mph - N/A   Haze
8:30 AM 83 °F - 58 °F 32% 29.79 in 2 mi ENE 2.3 mph - -   Haze
9:10 AM 89.6 °F 87.3 °F 53.6 °F 29% 29.86 in 2.5 mi ENE 3.5 mph - N/A   Haze
9:40 AM 89.6 °F 87.7 °F 55.4 °F 31% - 2.5 mi East 4.6 mph - N/A   Haze
10:10 AM 91.4 °F 89.9 °F 57.2 °F 31% 29.86 in 2.5 mi East 5.8 mph - N/A   Haze
11:30 AM 96 °F - 64 °F 25% 29.75 in 2 mi East 6.9 mph - -   Haze
12:10 PM 102.2 °F 103.6 °F 60.8 °F 26% 29.80 in 3.1 mi ESE 6.9 mph - N/A   Haze
1:10 PM 105.8 °F 107.5 °F 60.8 °F 23% 29.77 in 3.1 mi ESE 8.1 mph - N/A   Haze
2:10 PM 104.0 °F 105.3 °F 60.8 °F 24% 29.74 in 3.1 mi East 4.6 mph - N/A   Haze
2:30 PM 100 °F - 60 °F 18% 29.64 in 2 mi ESE 4.6 mph - -   Haze
3:10 PM 100.4 °F 101.3 °F 60.8 °F 27% 29.71 in 3.1 mi East 4.6 mph - N/A   Haze
4:10 PM 102.2 °F 100.4 °F 53.6 °F 20% 29.68 in 3.1 mi South 3.5 mph - N/A   Haze
5:10 PM 102.2 °F 100.9 °F 55.4 °F 21% 29.68 in 3.1 mi South 4.6 mph - N/A   Haze
5:30 PM 100 °F - 60 °F 18% 29.61 in 2 mi South 4.6 mph - -   Haze
6:10 PM 102.2 °F 100.4 °F 53.6 °F 20% 29.68 in 3.1 mi SSE 4.6 mph - N/A   Haze
7:10 PM 100.4 °F 98.4 °F 53.6 °F 21% 29.74 in 2.5 mi East 2.3 mph - N/A   Haze
8:10 PM 95.0 °F 94.4 °F 59.0 °F 30% 29.74 in 2.5 mi East 4.6 mph - N/A   Haze
8:30 PM 88 °F - 62 °F 32% 29.70 in 2 mi East 3.5 mph - -   Haze
9:10 PM 91.4 °F 89.9 °F 57.2 °F 31% 29.77 in 2.5 mi East 3.5 mph - N/A   Haze
10:10 PM 87.8 °F 86.5 °F 57.2 °F 35% 29.77 in 2.5 mi East 2.3 mph - N/A   Haze
11:10 PM 87.8 °F 86.1 °F 55.4 °F 33% 29.77 in 2.5 mi Calm Calm - N/A   Haze
11:30 PM 82 °F - 62 °F 40% 29.74 in 2 mi Calm Calm - -   Haze